Location: Argonnex
(45.9500°N, 6.1333°E)
Time: 06:41:26
(UTC+00:00)

CZ-4 R/B - Pass Details

Date: 28 January 2023
Orbit: 525 x 587 km, 97.7° (Epoch: 21 March)

Event Time Altitude Azimuth Distance (km) Brightness Sun altitude
Rises 19:48:03 0° 207° (SSW) 2,811 5.1 -33.6°
Reaches altitude 10° 19:50:54 10° 228° (SW) 1,913 4.5 -34.0°
Maximum altitude 19:53:35 17° 269° (W) 1,529 4.2 -34.5°
Drops below altitude 10° 19:56:16 10° 309° (NW) 1,911 4.7 -35.0°
Sets 19:59:07 0° 331° (NNW) 2,807 5.4 -35.5°
